Flag for Switzerland Weather past 2 weeks in Martigny, Valais, Switzerland

Now
57 °F

Refreshingly cool.


Feels Like: 57 °F
Forecast: 42 / 63 °F
Wind: 1 mph from Southwest

Location: Sion

Current Time: Oct 25, 2014 at 4:40:06 PM

Latest Report: Oct 25, 2014 at 4:00 PM


Visibility: N/A

Pressure: 30.12 "Hg

Humidity: 59%

Dew point: 42 °F

Location of MartignyLocation

Historic Weather in Martigny — Graph

°F

Martigny temperature yesterday

Maximum temperature yesterday: 57 °F (at 4:00 PM)
Minimum temperature yesterday: 35 °F (at 7:00 AM)
Average temperature yesterday: 43 °F

Past Weeks' High & Low Weather Summary

 TemperatureHumidityPressure
High75 °F (Oct 12, 4:00 PM)99% (Oct 14, 3:00 AM)30.37 "Hg (Oct 14, 3:00 AM)
Low35 °F (Oct 24, 7:00 AM)40% (Oct 12, 4:00 PM)29.75 "Hg (Oct 15, 4:00 PM)
Average55 °F79%30.05 "Hg
* Reported Oct 10 3:00 PM — Oct 25 3:00 PM, Martigny, Weather by CustomWeather, © 2014

Note: Actual official high and low records may vary slightly from our data, if they occured in-between our weather recording intervals... More about our weather records

Advertising

Martigny weather history for previous 24 hours

 ConditionsComfort  
Time TempWeatherWind HumidityBarometerVisibility
3:00 PM
Oct 25
56 °FCool.3 mph62%30.12 "HgN/A
2:00 PM56 °FLight rain. Partly sunny.8 mph59%30.14 "Hg16 mi
1:00 PM54 °FCool.3 mph65%30.15 "HgN/A
12:00 PM53 °FCool.2 mph67%30.16 "HgN/A
11:00 AM50 °FLight rain. Partly sunny.3 mph75%30.17 "Hg16 mi
10:00 AM46 °FCool.8 mph83%30.19 "HgN/A
9:00 AM46 °FCool.3 mph77%30.19 "HgN/A
8:00 AM46 °FPassing clouds.3 mph73%30.17 "Hg16 mi
7:00 AM46 °FCool.3 mph74%30.16 "HgN/A
6:00 AM45 °FQuite cool.1 mph79%30.17 "HgN/A
5:00 AM45 °FQuite cool.1 mph75%30.16 "HgN/A
4:00 AM44 °FQuite cool.3 mph78%30.17 "HgN/A
3:00 AM45 °FQuite cool.3 mph75%30.18 "HgN/A
2:00 AM44 °FPassing clouds.3 mph77%30.20 "Hg12 mi
1:00 AM45 °FCool.5 mph73%30.20 "HgN/A
12:00 AM44 °FQuite cool.5 mph79%30.22 "HgN/A
11:00 PM
Oct 24
42 °FPassing clouds.2 mph82%30.23 "Hg14 mi
10:00 PM42 °FQuite cool.2 mph83%30.22 "HgN/A
9:00 PM44 °FQuite cool.1 mph78%30.19 "HgN/A
8:00 PM43 °FPassing clouds.2 mph80%30.17 "Hg16 mi
7:00 PM47 °FCool.3 mph74%30.14 "HgN/A
6:00 PM53 °FCool.6 mph59%30.10 "HgN/A
5:00 PM56 °FRefreshingly cool.6 mph49%30.08 "HgN/A
4:00 PM57 °FRefreshingly cool.5 mph45%30.08 "HgN/A
Weather by CustomWeather, © 2014

See weather overviewHow to use our weather pages